Погода Полярный

Погода Полярный : погода сейчас, прогноз погоды и архив. Всё, что Вы хотите узнать о погоде Полярный!

Хотите узнать прогноз погоды Полярный? Тогда Вам сюда: Погода Полярный

Поиск расширенной информации на нашем сайте:

Полезная информация: Изготовление Салфеток с логотипом

Другие новости

Новости СМИ2

Главная страница сайта

Новости сайта

02.10.2013

Напоминаем, что на нашем новом сайте вы можете получить высокодетализированные прогнозы погоды по пунктам России, СНГ и мира (включающие важные для авиации метеовеличины, такие как направление и скорость ветра, видимость, явления погоды, количество и форма облачности, нижняя и верхняя граница облачности), а также ознакомиться с разнообразными материалами по авиационной метеорологии и подборкой полезных ссылок на эту тему.

Сайт Метеоцентр.Азия посвящён разработке технологий оптимизации авиаметеорологического обслуживания, включая проектирование и перспективное создание нескольких автоматизированных авиаметеорологических систем:
- система выпуска высокодетальных прогностических карт явлений погоды для нижнего воздушного пространства по России и ближнему зарубежью;
- система верификации прогнозов TAF (выпускаемых синоптиками официальных АМСГ РФ и ближнего зарубежья) и AUTOTAF (выпускаемых сайтом Метеоцентр.Азия) - выявление ошибок, онлайн-сопоставление с фактической погодой METAR, автоматическое внесение коррективов в прогнозы при резком отклонении фактической погоды от прогноза, подсчёт оправдываемости прогнозов по элементам и в целом;
- система обработки, анализа и отображения авиаметеорологической информации для применения провайдерами метеорологической информации.

Рекомендуем: Надежно - новости балаково - у нас дешевле.

Погода Полярный - сегодня

Время (UTC), дата Ветер
(°,м/с) 
Видим.   Явления Облачность Т
(°С)
Тd
(°С)
f(%) Тe
(°С)
Pmin
(гПа)
dP
(гПа)
Po
(мм)
O2
(г/м3)
Тmin Tmax R s Состояние
почвы
03 26.03.17 200 (Ю) 20000 м    6/0 верхняя 
[Ci fib]
-2.1 -14.5 38 -5  1007.2  -1.7  709  289           
06 26.03.17 200 (Ю) 5-10{11}  20000 м    6/0 верхняя 
[Ci fib]
+2.8 -13.5 29 1003.3  -2.8  707  283           
09 26.03.17 220 (ЮЗ) 5-10{12}  20000 м    6/0 верхняя 
[Ci fib]
+2.8 -11.7 33 1001  -2.1  706  282           
12 26.03.17 210 (ЮЗ) 5{10}  20000 м    8/0 средняя, верхняя 
[Ac trans|Ci]
+1.3 -10.3 42 -1  1000.8  -0.4  705  284    +2.9       
15 26.03.17 210 (ЮЗ) 5{11}  20000 м    10/0 средняя, верхняя 
[Ac trans|Ci]
-0.2 -9.3 50 -3  998.3  -2.7  703  284           
18 26.03.17 230 (ЮЗ) 4{10}  20000 м    10/0 средняя, верхняя 
[Ac trans|Ci]
-1.6 -8 62 -4  997.4  -1.1  703  285           
21 26.03.17 250 (З) 20000 м    10/0 средняя, верхняя 
[Ac trans|Ci]
-2.8 -5.8 80 -6  997.9  0.2  703  287           
00 27.03.17 260 (З) 4{10}  20000 м    8/5 600 м средняя, верхняя 
[Sc|Ac trans|Ci fib]
-4.7 -9.5 69 -8  998.7  0.4  703  289  -4.8      47  равномерный
сухой снег
100% 
03 27.03.17 270 (З) 5-10{11}  2000 м  слаб. снег  10/8 600 м средняя 
[Frnb|As op]
-5.1 -7.6 83 -9  1000.1  1.1  704  290           
06 27.03.17 280 (З) 6-11{13}  1000 м  ливневой снег  10/8 300 м кучево-дожд., средняя 
[Cb cap|As op]
-5.6 -7.8 84 -10  1003.6  3.2  706  291           
09 27.03.17 290 (З) 6-11{13}  20000 м  {ливн. осадки}  8/0 средняя 
[Ac trans]
-4.5 -11.5 58 -9  1008.2  4.7  710  292           
12 27.03.17 270 (З) 3{13}  20000 м  {ливн. осадки}  8/0 средняя 
[Ac trans]
-5.8 -11.5 64 -8  1011.3  2.6  712  294    -4.5     
15 27.03.17 280 (З) 20000 м    8/0 средняя 
[Ac trans]
-7.5 -7.5 100 -9  1013.4  1.5  713  296           
18 27.03.17 270 (З) 20000 м    10/4 1000 м средняя 
[Sc|Ac und]
-8.7 -13 71 -10  1015.8  714  298           
21 27.03.17 260 (З) 20000 м    10/4 1000 м средняя 
[Sc|Ac und]
-8.9 -12.3 76 -11  1017.6  1.7  716  299           
00 28.03.17 200 (Ю) 20000 м    5/0 верхняя 
[Ci fib]
-8.2 -12.9 69 -10  1019.1  1.5  717  299  -9.1      47  равномерный
сухой снег
100% 
03 28.03.17 210 (ЮЗ) 20000 м    4/0 верхняя 
[Ci fib]
-3 -11.1 54 -6  1017.9  0.1  717  293           
06 28.03.17 240 (ЮЗ) 20000 м    4/0 верхняя 
[Ci fib]
-2 -9.5 56 -5  1016.9  -0.7  716  292           
09 28.03.17 240 (ЮЗ) 20000 м    8/0 средняя, верхняя 
[Ac trans|Ci fib]
-1.8 -9.2 57 -5  1017.2  0.3  717  291           
12 28.03.17 190 (Ю) 20000 м    8/0 средняя, верхняя 
[Ac trans|Ci fib]
-3.3 -10.2 59 -6  1017.2  -0.2  716  293    -1.1       
15 28.03.17 210 (ЮЗ) 20000 м    8/0 средняя, верхняя 
[Ac trans|Ci fib]
-2.4 -9.7 57 -6  1015.4  -1.3  715  292           
18 28.03.17 230 (ЮЗ) 4{10}  20000 м    6/0 средняя, верхняя 
[Ac trans|Ci fib]
-2.2 -9.4 58 -5  1014.3  -1.1  714  291           
21 28.03.17 230 (ЮЗ) 20000 м    6/0 средняя, верхняя 
[Ac trans|Ci fib]
-2.2 -8.1 64 -4  1014  -0.2  714  291           
00 29.03.17 230 (ЮЗ) 20000 м    10/5 1000 м средняя, верхняя 
[Sc|Ac trans|Ci]
-2.9 -7.4 71 -6  1014.1  714  292  -3.4      47  равномерный
сухой снег
100% 
03 29.03.17 250 (З) 20000 м    8/5 1000 м верхняя 
[Cu Sc|Ci fib]
-0.3 -5.7 67 -3  1013.8  0.2  714  289           
Время (UTC), дата Ветер
(°,м/с) 
Видим.   Явления Облачность Т
(°С)
Тd
(°С)
f(%) Тe
(°С)
Pmin
(гПа)
dP
(гПа)
Po
(мм)
O2
(г/м3)
Тmin Tmax R s Состояние
почвы

Для получения пояснительной информации подведите курсор к названию столбца.

ПОГОДА Полярный - архив

Всё, что Вы хотите узнать о погоде Полярный - удобно и подробно!

Выберите нужную дату (начиная с 1 января 2015* года) и нажмите кнопку "Найти".
Будут отображены архивные сводки погоды по пункту Полярный, начиная с указанной даты.


Отображать данные в формате CSV (для использования в таблицах Excel)


Внимание! Наш архив погоды предназначен исключительно для личного некоммерческого использования в познавательных целях. Если Вам необходимы официальные справки о состоянии погоды (для производственных, юридических, коммерческих и т.п. целей), обращайтесь в органы Росгидромета.

*Примечание: данная дата относится к архиву по метеостанциям СССР (Россия, СНГ, Балтия).
Архив по метеостанциям Зарубежной Европы и Азии (кроме Китая) хранится 10 дней, по другим регионам земного шара (Китай, Африка, Америка, Австралия, Океания) - 1 день.

Полярный - район местоположения метеостанции


Название, широта, долгота, высота метеостанции:
Полярный 66.5°ш. 112°д. 509 м над ур. моря [Российская Федерация]

Дополнительная информация

В oтличие oт бoльшинства пoгoдных сайтoв мы публикуем пoдрoбную метеoинфoрмацию в детальнoм прoфессиoнальнoм фoрмате.

Характеристики температуры и влажнoсти вoздуха измеряются на высoте 2 м в тени вдали oт зданий и деревьев.
Скoрoсть ветра измеряется на высoте 10 м (на урoвне рoста челoвека скoрoсть ветра ниже в 1.5-2 раза). Если метеoстанция нахoдится в гoрoде или в лесу, тo скoрoсть ветра занижена на 2-4 м/с пo сравнению с oткрытым местoм. Скoрoсть ветра над акватoриями крупных рек и oзёр, а также на вершинах хoлмoв на 2-5 м/с выше, чем в oбычных услoвиях.
Атмoсфернoе давление в разных тoчках местнoсти мoжет значительнo oтличаться oт давления на метеoстанции, в зависимoсти oт услoвий рельефа (при пoдъёме на 10 м давление пoнижается примернo на 1 мм рт.ст.).